Regional Weather Roundup
Issued by NWS

Home | Current Version | Previous Version | Text Only | Print | Product List | Glossary On
Versions: 1 2 3 4 5 6 7 8 9 10 11 12 13 14 15 16 17 18 19 20 21 22 23 24 25 26 27 28 29 30 31 32 33 34 35 36 37 38 39 40 41 42 43 44 45 46 47 48 49 50
000
ASUS43 KIND 060409
RWRIN

WEATHER ROUNDUP FOR INDIANA
NATIONAL WEATHER SERVICE INDIANAPOLIS IN
1100 PM EST THU MAR 05 2015

NOTE: "FAIR" INDICATES FEW OR NO CLOUDS BELOW 12,000 FEET WITH NO
SIGNIFICANT WEATHER AND/OR OBSTRUCTIONS TO VISIBILITY.

* - STATION DOES NOT REPORT WEATHER SUCH AS PRECIPITATION OR FOG.

+ - STATION NOT QUALITY CONTROLLED BY THE NATIONAL WEATHER SERVICE.
    USE DATA WITH CAUTION...ESPECIALLY DEWPOINT AND RELATIVE
    HUMIDITY OBSERVATIONS.

INZ001>003-010>013-019-020-060500-
NORTHWEST INDIANA

CITY           SKY/WX    TMP DP  RH WIND       PRES   REMARKS
GARY /AIRPORT/ PTCLDY    13  -3  49 W8        30.56R WCI   1
KNOX *+          N/A      3 -13  47 W5        30.53S WCI  -6
LA PORTE +     PTCLDY     4  -4  71 CALM      30.53S
MICHIGAN CITY+ PTCLDY     7  -4  61 CALM      30.54F
MONTICELLO +   PTCLDY     2  -3  78 CALM      30.56S
RENSSELAER +   PTCLDY     3   0  85 SW5       30.56S WCI  -6
VALPARAISO     PTCLDY     6  -3  66 CALM      30.54S

$$

LMZ046-743>745-060500-
SOUTHERN LAKE MICHIGAN

STATION/POSITION TIME  TEMP WIND        PRES
                       AIR  DIR/SP/G
                 (UTC) (F)  (DEG/KT/KT) (MB)
MICHIGAN CITY    0400   11  180/  7/  9   N/A

$$

INZ004-005-014>016-021>024-060500-
NORTH CENTRAL INDIANA

CITY           SKY/WX    TMP DP  RH WIND       PRES   REMARKS
GOSHEN         PTCLDY     6   0  76 SW3       30.52S
LOGANSPORT +   PTCLDY     1  -4  78 SW3       30.55F
PERU/GRISSOM   PTCLDY     5  -3  71 SW2       30.52F
ROCHESTER +    MOCLDY    12   3  67 W5        30.54S WCI   4
SOUTH BEND     PTCLDY     5  -2  72 CALM      30.53S
WARSAW +       MOCLDY     7   3  85 CALM      30.52F

$$

INZ006>009-017-018-025>027-060500-
NORTHEAST INDIANA

CITY           SKY/WX    TMP DP  RH WIND       PRES   REMARKS
ANGOLA *+      CLEAR      9   3  78 CALM      30.49R
AUBURN +       PTCLDY    10   3  72 CALM      30.53R
FORT WAYNE     PTCLDY     5   0  79 W7        30.54R WCI  -7
HUNTINGTON +   MOCLDY     8  -2  62 CALM      30.53F

$$

INZ028-029-035-036-043>045-051>053-060500-
WEST CENTRAL INDIANA

CITY           SKY/WX    TMP DP  RH WIND       PRES   REMARKS
CRAWFORDSVL +  MOCLDY     3  -6  65 CALM      30.57R
GREENCASTLE +  MOCLDY    10   0  61 CALM      30.56S
LAFAYETTE      MOCLDY     4  -1  80 W5        30.58R WCI  -5
TERRE HAUTE    PTCLDY     5   0  79 NE5       30.59F WCI  -4

$$

INZ030>032-037>040-046>048-054>057-064-065-060500-
CENTRAL INDIANA

CITY           SKY/WX    TMP DP  RH WIND       PRES   REMARKS
CP ATTERBURY + PTCLDY    14   7  73 CALM      30.57S
FRANKFORT +    PTCLDY    -4  -8  85 SW6       30.57R WCI -17
GREENWOOD *+   PTCLDY    10   0  61 NW5       30.56S WCI   2
INDIANAPOLIS   MOCLDY     9   0  67 NW7       30.54S WCI  -2
-EAGLE CREEK   MOCLDY     9   0  67 NW6       30.55R WCI  -1
KOKOMO *+        N/A    N/A N/A N/A MISG        N/A
MARION +       MOCLDY     3  -4  73 CALM      30.54F
MT COMFORT *+  PTCLDY     5  -6  61 NW3       30.54F
SHELBYVILLE    PTCLDY    12   6  77 CALM      30.54F
ZIONSVILLE +   PTCLDY     6  -1  72 W3        30.55R

$$

INZ033-034-041-042-049-050-058-059-060500-
EAST CENTRAL INDIANA

CITY           SKY/WX    TMP DP  RH WIND       PRES   REMARKS
MUNCIE         MOCLDY     8   3  80 CALM      30.53S

$$

INZ060-061-067>069-081>083-085>088-060500-
SOUTHWEST INDIANA

CITY           SKY/WX    TMP DP  RH WIND       PRES   REMARKS
EVANSVILLE     MOCLDY    13   2  61 N8        30.62S WCI   2
HUNTINGBURG *+ PTCLDY    10   0  61 N8        30.60R WCI  -1
WASHINGTON +   PTCLDY    10  -1  60 NW5       30.61R WCI   2

$$

INZ062-063-066-070>080-084-089>092-060500-
SOUTH CENTRAL AND SOUTHEAST INDIANA

CITY           SKY/WX    TMP DP  RH WIND       PRES   REMARKS
BEDFORD +      MOCLDY    12   5  73 NW3       30.57R
BLOOMINGTON    MOCLDY    11   2  67 CALM      30.56R
NORTH VERNON + PTCLDY    12   7  79 CALM      30.56R
SEYMOUR +      PTCLDY    18   5  57 N8        30.58R WCI   7

$$



USA.gov is the U.S. government's official web portal to all federal, state and local government web resources and services.